Home   Weather   Santa Barbara   Past weeks

Flag for USA Past Weather in Santa Barbara, California, USA — Yesterday and Last 2 Weeks

Now
55 °F

Sunny.


Feels Like: 53 °F
Forecast: 51 / 61 °F
Wind: 8 mph from West

Location: Santa Barbara Municipal Airport

Current Time: Jan 21, 2017 at 6:12:41 pm

Latest Report: Jan 21, 2017 at 4:53 pm


Visibility: 10 mi

Pressure: 29.96 "Hg

Humidity: 77%

Dew Point: 48 °F

Location of Santa BarbaraLocation

Past Weather in Santa Barbara — Graph

°F

Santa Barbara Temperature Yesterday

Maximum temperature yesterday: 57 °F (at 1:53 pm)
Minimum temperature yesterday: 48 °F (at 11:53 pm)
Average temperature yesterday: 52 °F

High & Low Weather Summary for the Past Weeks

 TemperatureHumidityPressure
High69 °F (Jan 14, 3:53 pm)100% (Jan 8, 5:53 am)30.20 "Hg (Jan 8, 5:53 am)
Low38 °F (Jan 13, 5:53 am)28% (Jan 14, 6:53 pm)29.43 "Hg (Jan 20, 12:53 pm)
Average54 °F84%30.01 "Hg
* Reported Jan 6 4:53 pm — Jan 21 4:53 pm, Santa Barbara, Weather by CustomWeather, © 2017

Note: Actual official high and low records may vary slightly from our data, if they occured in-between our weather recording intervals... More about our weather records

Advertising

Santa Barbara Weather History for the Previous 24 Hours

Scroll right to see more
 ConditionsComfort  
Time TempWeatherWind HumidityBarometerVisibility
4:53 pm
Sat, Jan 21
55 °FSunny.8 mph77%29.96 "Hg10 mi
3:53 pm56 °FPassing clouds.14 mph75%29.97 "Hg10 mi
2:53 pm57 °FPassing clouds.16 mph69%29.97 "Hg10 mi
1:53 pm57 °FPassing clouds.14 mph69%29.94 "Hg10 mi
12:53 pm58 °FSunny.13 mph67%29.93 "Hg10 mi
11:53 am57 °FSunny.15 mph64%29.95 "Hg10 mi
10:53 am57 °FSunny.8 mph64%29.94 "Hg10 mi
9:53 am56 °FSunny.9 mph65%29.92 "Hg10 mi
8:53 am55 °FSunny.9 mph64%29.88 "Hg10 mi
7:53 am49 °FPassing clouds.5 mph84%29.84 "Hg10 mi
6:53 am50 °FPartly cloudy.5 mph77%29.81 "Hg10 mi
5:53 am48 °FLight rain. Mostly cloudy.No wind89%29.78 "Hg9 mi
4:53 am49 °FOvercast.5 mph80%29.74 "Hg10 mi
3:53 am49 °FOvercast.5 mph80%29.72 "Hg10 mi
2:53 am48 °FPartly cloudy.8 mph83%29.69 "Hg10 mi
1:53 am44 °FPassing clouds.3 mph93%29.65 "Hg10 mi
12:53 am46 °FPassing clouds.No wind89%29.63 "Hg10 mi
11:53 pm
Fri, Jan 20
48 °FPassing clouds.No wind83%29.62 "Hg10 mi
10:53 pm49 °FPartly cloudy.3 mph77%29.62 "Hg10 mi
9:53 pm50 °FPassing clouds.7 mph74%29.59 "Hg10 mi
8:53 pm51 °FLight rain. Mostly cloudy.13 mph71%29.57 "Hg10 mi
7:53 pm52 °FOvercast.10 mph77%29.55 "Hg10 mi
6:53 pm51 °FPassing clouds.10 mph80%29.52 "Hg10 mi
Weather by CustomWeather, © 2017

See weather overviewHow to use our weather pages